Regional Weather Roundup
Issued by NWS

Home | Current Version | Previous Version | Text Only | Print | Product List | Glossary On
Versions: 1 2 3 4 5 6 7 8 9 10 11 12 13 14 15 16 17 18 19 20 21 22 23 24 25 26 27 28 29 30 31 32 33 34 35 36 37 38 39 40 41 42 43 44 45 46 47 48 49 50
000
ASUS43 KIND 011709
RWRIN

WEATHER ROUNDUP FOR INDIANA
NATIONAL WEATHER SERVICE INDIANAPOLIS IN
1200 PM EST SUN FEB 01 2015

NOTE: "FAIR" INDICATES FEW OR NO CLOUDS BELOW 12,000 FEET WITH NO
SIGNIFICANT WEATHER AND/OR OBSTRUCTIONS TO VISIBILITY.

* - STATION DOES NOT REPORT WEATHER SUCH AS PRECIPITATION OR FOG.

+ - STATION NOT QUALITY CONTROLLED BY THE NATIONAL WEATHER SERVICE.
    USE DATA WITH CAUTION...ESPECIALLY DEWPOINT AND RELATIVE
    HUMIDITY OBSERVATIONS.

INZ001>003-010>013-019-020-011800-
NORTHWEST INDIANA

CITY           SKY/WX    TMP DP  RH WIND       PRES   REMARKS
GARY /AIRPORT/ SNOW      34  30  86 NE12      29.85F VSB 1/4 WCI  25
KNOX *+        CLOUDY    32  30  93 E9        29.84F VSB 1/2 WCI  24
LA PORTE +     SNOW      32  32 100 E13       29.86F VSB 1/2 WCI  23
MICHIGAN CITY+ SNOW      30  28  93 E5        29.86F VSB 1/2 WCI  25
MONTICELLO +   SNOW      32  32 100 E7        29.80F VSB 1/4 WCI  26
RENSSELAER +   SNOW      32  32 100 E9        29.80F VSB 1/2 WCI  24
VALPARAISO     SNOW      32  31  96 E17       29.83F VSB 1/4 WCI  21

$$

LMZ046-743>745-011800-
SOUTHERN LAKE MICHIGAN

STATION/POSITION TIME  TEMP WIND        PRES
                       AIR  DIR/SP/G
                 (UTC) (F)  (DEG/KT/KT) (MB)
MICHIGAN CITY    1700   29   50/ 15/ 19   N/A

$$

INZ004-005-014>016-021>024-011800-
NORTH CENTRAL INDIANA

CITY           SKY/WX    TMP DP  RH WIND       PRES   REMARKS
GOSHEN         SNOW      29  27  92 E18       29.89F VSB 1/4 WCI  16
LOGANSPORT +   SNOW      32  32 100 E12       29.83F VSB 1/4 WCI  23
PERU/GRISSOM   SNOW      33  32  97 E12       29.82F VSB 1/2 WCI  24
ROCHESTER +    SNOW      34  34 100 E10       29.85F VSB 1/2 WCI  26
SOUTH BEND     SNOW      29  27  92 E13G21    29.89F VSB 1/2 WCI  19
WARSAW +       SNOW      32  32 100 E14       29.87F VSB 1/2 WCI  22

$$

INZ006>009-017-018-025>027-011800-
NORTHEAST INDIANA

CITY           SKY/WX    TMP DP  RH WIND       PRES   REMARKS
ANGOLA *+      CLOUDY    25  21  86 E14       29.92F VSB 3/4 WCI  13
AUBURN +       LGT SNOW  30  27  86 E14       29.92F VSB 3/4 WCI  20
FORT WAYNE     SNOW      33  32  96 E13       29.89F VSB 1/4 WCI  24
HUNTINGTON +   LGT SNOW  32  29  90 E8        29.87F VSB 3/4 WCI  25

$$

INZ028-029-035-036-043>045-051>053-011800-
WEST CENTRAL INDIANA

CITY           SKY/WX    TMP DP  RH WIND       PRES   REMARKS
CRAWFORDSVL +  CLOUDY    32  29  88 SE10      29.77F WCI  24
GREENCASTLE +  LGT RAIN  32  30  93 SE7       29.79F WCI  26
LAFAYETTE      SNOW      32  31  96 E10       29.79F VSB 1/2 WCI  24
TERRE HAUTE    CLOUDY    34  31  88 SE9       29.77F WCI  27

$$

INZ030>032-037>040-046>048-054>057-064-065-011800-
CENTRAL INDIANA

CITY           SKY/WX    TMP DP  RH WIND       PRES   REMARKS
CP ATTERBURY + LGT RAIN  34  32  93 CALM      29.80F
COLUMBUS       LGT RAIN  37  30  75 S12       29.82F FOG
FRANKFORT +    SNOW      33  33 100 E12       29.81F VSB 1/2 WCI  24
GREENWOOD *+   CLOUDY    34  28  80 E5        29.81F WCI  30
INDIANAPOLIS   LGTSLEET  30  30 100 E9        29.80F FOG     WCI  22
-EAGLE CREEK   LGT SNOW  32  31  96 SE7       29.79F FOG     WCI  26
KOKOMO *+      CLOUDY    34  30  86 SE13      29.83F VSB 1/2 WCI  25
MARION +       LGT SNOW  32  32  99 SE7       29.84F VSB 3/4 WCI  26
MT COMFORT *+  CLOUDY    32  32 100 SE9       29.82F WCI  24
SHELBYVILLE    RAIN      37  30  75 SE8       29.80F
ZIONSVILLE +   LGT SNOW  33  30  90 SE9       29.81F VSB 3/4 WCI  25

$$

INZ033-034-041-042-049-050-058-059-011800-
EAST CENTRAL INDIANA

CITY           SKY/WX    TMP DP  RH WIND       PRES   REMARKS
MUNCIE         LGT SNOW  35  31  85 SE7       29.84F FOG     WCI  29

$$

INZ060-061-067>069-081>083-085>088-011800-
SOUTHWEST INDIANA

CITY           SKY/WX    TMP DP  RH WIND       PRES   REMARKS
EVANSVILLE     LGT RAIN  43  40  89 S7        29.79F FOG
HUNTINGBURG *+ CLOUDY    39  36  87 SW12      29.81R
WASHINGTON +   RAIN      39  35  87 S8        29.78F

$$

INZ062-063-066-070>080-084-089>092-011800-
SOUTH CENTRAL AND SOUTHEAST INDIANA

CITY           SKY/WX    TMP DP  RH WIND       PRES   REMARKS
BLOOMINGTON    LGT RAIN  34  33  96 SE3       29.79F FOG
NORTH VERNON + RAIN      39  30  70 SE10      29.82F
SEYMOUR +      LGT RAIN  37  36  93 SE12G18   29.79F

$$



USA.gov is the U.S. government's official web portal to all federal, state and local government web resources and services.